Location: Bailleul
(50.3375°N, 2.8513°E)
Time: 07:36:47
(UTC+00:00)

Okean 2 - Pass Details

Date: 16 June 2021
Orbit: 560 x 575 km, 82.5° (Epoch: 26 July)

Event Time Altitude Azimuth Distance (km) Brightness Sun altitude
Rises 20:40:39 0° 195° (SSW) 2,748 6.6 -5.3°
Reaches altitude 10° 20:42:50 10° 197° (SSW) 1,855 5.7 -5.5°
Maximum altitude 20:46:54 69° 281° (WNW) 606 3.7 -6.0°
Drops below altitude 10° 20:51:00 10° 6° (N) 1,864 6.7 -6.4°
Sets 20:53:12 0° 9° (N) 2,764 7.6 -6.6°
